Location: Central Falls
(41.8900°N, 71.3929°W)
Time: 15:11:32
(UTC+00:00)

Vanguard 1 - Pass Details

Date: 07 December 2023
Orbit: 653 x 3826 km, 34.3° (Epoch: 24 February)

Event Time Altitude Azimuth Distance (km) Brightness Sun altitude
Rises 19:35:06 0° 194° (SSW) 4,572 14.7 13.5°
Reaches altitude 10° 19:38:29 10° 181° (S) 4,002 14.1 13.0°
Maximum altitude 19:46:58 25° 131° (SE) 3,896 13.2 12.0°
Drops below altitude 10° 19:59:28 10° 86° (E) 6,103 13.7 10.3°
Sets 20:06:22 0° 76° (ENE) 7,561 14.0 9.4°
